Location: ????????
(55.0559°N, 39.1270°E)
Time: 01:42:21
(UTC+00:00)

NOSS 2-1 (D) - Pass Details

Date: 15 November 2025
Orbit: 374 x 1680 km, 63.3° (Epoch: 12 December)

Event Time Altitude Azimuth Distance (km) Brightness Sun altitude
Exits shadow 03:47:10 13° 315° (NW) 1,255 4.6 -9.7°
Maximum altitude 03:48:52 18° 355° (N) 1,013 4.5 -9.5°
Drops below altitude 10° 03:51:13 10° 43° (NE) 1,477 5.8 -9.1°
Sets 03:53:42 0° 62° (ENE) 2,404 7.3 -8.8°
